Location: Antioch Baptist Church
(32.6696°N, 85.7327°W)
Time: 12:22:39
(UTC+00:00)

Cosmos 2082 Rocket - Pass Details

Date: 14 July 2020
Orbit: 833 x 853 km, 71.0° (Epoch: 09 August)

Event Time Altitude Azimuth Distance (km) Brightness Sun altitude
Exits shadow 09:10:07 15° 277° (W) 2,146 3.9 -17.5°
Maximum altitude 09:12:06 18° 302° (WNW) 1,997 4.0 -17.2°
Drops below altitude 10° 09:15:50 10° 343° (NNW) 2,484 4.9 -16.6°
Sets 09:19:10 0° 3° (N) 3,421 6.0 -16.1°
